Location: A�t Lahcen
(32.8243°N, 5.4246°W)
Time: 02:11:26
(UTC+00:00)

OAO 2 Rocket - Pass Details

Date: 27 January 2021
Orbit: 676 x 745 km, 35.0° (Epoch: 26 February)

Event Time Altitude Azimuth Distance (km) Brightness Sun altitude
Exits shadow 05:36:17 54° 252° (WSW) 816 3.3 -21.8°
Maximum altitude 05:37:10 67° 200° (SSW) 731 3.3 -21.6°
Drops below altitude 10° 05:42:01 10° 118° (ESE) 2,097 6.8 -20.6°
Sets 05:44:25 0° 115° (ESE) 3,011 8.0 -20.1°
